GEO-KOMPSAT-2B (45246 NORAD) Tracking and Keplerian Element Data

This shows tracking and keplerian element data for the satellite.

Feedback or suggestion? Click here.




ElementValue
Catalog45246
NameGEO-KOMPSAT-2B
Epoch Orbit53
Epoch Day93.86924394
Epoch Year2020
RAAN353.3024
Inclination0.0411
Eccentricity0.0001429
Argument of Perigee337.4796
Mean Anonmoly302.07
Mean Motion1.00272506
Decay Rate-3.52E-06
L11 45246U 20013B 20093.86924394 -.00000352 00000-0 00000+0 0 9996
L22 45246 0.0411 353.3024 0001429 337.4796 302.0700 1.00272506 537

Live tracking and technical data element details for GEO-KOMPSAT-2B (NORAD 45246). GEO-KOMPSAT-2B can be tracked NOW for your location showing map with azimuth and elevation plus other details from your city location.

Track the satellite on the map from your city or location and see movement details for azimuth, elevation, latitude, longitude, range, height, and movement on the map or in text.







IsCatalogInMostPopularTable: catalog: 45246, numindb: 13
Update: records affected: 1



GetName: 45246 GEO-KOMPSAT-2B

Hit Count: updated at: Fri, 10 Apr 2020 18:34:45 GMT